Wetterdaten: Sonntag, 17.04.2016
Datum Zeit Temp. A. Mod.Schuppen Aussentemp2 Feuchte A. Luftdruck Regen Wind Richtung Richtung Sonnenschein Helligkeit Solar
17.04.2016 00:04 6,6 C 4,4 C 12,3 C 77 % 1003,8 hPa 0,0 l/m 11,9 km/h (2 Bft) W-NW22.5 290 0 min 0 lux 0 W/m
17.04.2016 00:10 6,6 C 4,5 C 12,3 C 77 % 1003,8 hPa 0,0 l/m 8,3 km/h (2 Bft) W-NW 290 0 min 0 lux 0 W/m
17.04.2016 00:15 6,5 C 4,5 C 12,2 C 77 % 1003,8 hPa 0,0 l/m 9,2 km/h (2 Bft) W22.5 270 0 min 0 lux 0 W/m
17.04.2016 00:19 6,4 C 4,5 C 12,2 C 78 % 1003,8 hPa 0,0 l/m 11,9 km/h (2 Bft) W22.5 275 0 min 0 lux 0 W/m
17.04.2016 00:24 6,3 C 4,6 C 12,2 C 79 % 1003,8 hPa 0,0 l/m 11,6 km/h (2 Bft) W 270 0 min 0 lux 0 W/m
17.04.2016 00:29 6,3 C 4,7 C 12,2 C 78 % 1003,8 hPa 0,0 l/m 10,9 km/h (2 Bft) W22.5 280 0 min 0 lux 0 W/m
17.04.2016 00:34 6,3 C 4,5 C 12,2 C 78 % 1003,8 hPa 0,0 l/m 11,8 km/h (2 Bft) W 275 0 min 0 lux 0 W/m
17.04.2016 00:40 6,2 C 4,4 C 12,2 C 79 % 1003,8 hPa 0,0 l/m 12,5 km/h (2 Bft) W22.5 275 0 min 0 lux 0 W/m
17.04.2016 00:45 6,0 C 4,2 C 12,2 C 79 % 1003,8 hPa 0,0 l/m 12,0 km/h (2 Bft) W22.5 270 0 min 0 lux 0 W/m
17.04.2016 00:49 6,0 C 4,1 C 12,2 C 79 % 1003,8 hPa 0,0 l/m 11,3 km/h (2 Bft) W22.5 280 0 min 0 lux 0 W/m
17.04.2016 00:54 6,0 C 4,0 C 12,3 C 79 % 1003,8 hPa 0,0 l/m 8,7 km/h (2 Bft) W 270 0 min 0 lux 0 W/m
17.04.2016 00:59 6,0 C 3,9 C 12,2 C 80 % 1004,8 hPa 0,0 l/m 9,7 km/h (2 Bft) W 270 0 min 0 lux 0 W/m
17.04.2016 01:05 5,8 C 3,8 C 11,9 C 80 % 1004,8 hPa 0,0 l/m 10,5 km/h (2 Bft) W-SW 255 0 min 0 lux 0 W/m
17.04.2016 01:09 5,9 C 3,8 C 11,9 C 81 % 1004,8 hPa 0,0 l/m 11,9 km/h (2 Bft) W22.5 265 0 min 0 lux 0 W/m
17.04.2016 01:14 5,8 C 3,8 C 12,2 C 81 % 1004,8 hPa 0,0 l/m 8,4 km/h (2 Bft) W 280 0 min 0 lux 0 W/m
17.04.2016 01:19 5,8 C 3,8 C 12,2 C 81 % 1004,8 hPa 0,0 l/m 9,5 km/h (2 Bft) W 265 0 min 0 lux 0 W/m
17.04.2016 01:25 5,8 C 3,7 C 12,2 C 81 % 1004,8 hPa 0,0 l/m 11,1 km/h (2 Bft) W22.5 275 0 min 0 lux 0 W/m
17.04.2016 01:30 5,8 C 3,7 C 12,1 C 81 % 1004,8 hPa 0,0 l/m 10,1 km/h (2 Bft) W22.5 280 0 min 0 lux 0 W/m
17.04.2016 01:34 5,7 C 3,8 C 12,2 C 81 % 1004,8 hPa 0,0 l/m 9,4 km/h (2 Bft) W 280 0 min 0 lux 0 W/m
17.04.2016 01:39 5,7 C 3,9 C 12,2 C 81 % 1004,8 hPa 0,0 l/m 11,7 km/h (2 Bft) W-NW22.5 285 0 min 0 lux 0 W/m
17.04.2016 01:44 5,8 C 3,9 C 12,2 C 81 % 1004,8 hPa 0,0 l/m 11,1 km/h (2 Bft) W22.5 280 0 min 0 lux 0 W/m
17.04.2016 01:49 5,7 C 3,9 C 12,0 C 81 % 1004,8 hPa 0,0 l/m 10,0 km/h (2 Bft) W22.5 275 0 min 0 lux 0 W/m
17.04.2016 01:55 5,8 C 4,1 C 11,8 C 82 % 1004,8 hPa 0,0 l/m 12,1 km/h (2 Bft) W22.5 265 0 min 0 lux 0 W/m
17.04.2016 02:00 5,8 C 4,5 C 12,1 C 82 % 1004,8 hPa 0,0 l/m 7,4 km/h (2 Bft) W 275 0 min 0 lux 0 W/m
17.04.2016 02:04 5,9 C 4,6 C 12,1 C 82 % 1004,8 hPa 0,0 l/m 12,1 km/h (2 Bft) W22.5 280 0 min 0 lux 0 W/m
17.04.2016 02:09 6,1 C 4,8 C 12,2 C 82 % 1004,8 hPa 0,0 l/m 7,8 km/h (2 Bft) W 275 0 min 0 lux 0 W/m
17.04.2016 02:15 6,2 C 5,0 C 12,2 C 81 % 1004,8 hPa 0,0 l/m 10,1 km/h (2 Bft) W22.5 275 0 min 0 lux 0 W/m
17.04.2016 02:19 6,2 C 5,1 C 12,1 C 82 % 1004,8 hPa 0,0 l/m 10,5 km/h (2 Bft) W22.5 275 0 min 0 lux 0 W/m
17.04.2016 02:24 6,2 C 5,3 C 12,1 C 81 % 1004,8 hPa 0,0 l/m 10,9 km/h (2 Bft) W 275 0 min 0 lux 0 W/m
17.04.2016 02:29 6,2 C 5,4 C 12,2 C 81 % 1004,8 hPa 0,0 l/m 11,7 km/h (2 Bft) W 275 0 min 0 lux 0 W/m
17.04.2016 02:34 6,2 C 5,5 C 12,1 C 81 % 1004,8 hPa 0,0 l/m 11,0 km/h (2 Bft) W22.5 280 0 min 0 lux 0 W/m
17.04.2016 02:40 6,3 C 5,6 C 12,1 C 80 % 1004,8 hPa 0,0 l/m 12,2 km/h (2 Bft) W-NW45 295 0 min 0 lux 0 W/m
17.04.2016 02:45 6,4 C 5,6 C 12,1 C 80 % 1004,8 hPa 0,0 l/m 7,9 km/h (2 Bft) W-NW 290 0 min 0 lux 0 W/m
17.04.2016 02:49 6,4 C 5,6 C 12,0 C 80 % 1004,8 hPa 0,0 l/m 13,1 km/h (3 Bft) W22.5 280 0 min 0 lux 0 W/m
17.04.2016 02:54 6,4 C 5,7 C 12,1 C 80 % 1004,8 hPa 0,0 l/m 8,0 km/h (2 Bft) W-NW22.5 285 0 min 0 lux 0 W/m
17.04.2016 02:59 6,4 C 5,7 C 12,1 C 80 % 1004,8 hPa 0,0 l/m 9,0 km/h (2 Bft) W-NW 290 0 min 0 lux 0 W/m
17.04.2016 03:05 6,4 C 5,6 C 12,1 C 80 % 1004,8 hPa 0,0 l/m 9,5 km/h (2 Bft) W22.5 280 0 min 0 lux 0 W/m
17.04.2016 03:09 6,4 C 5,6 C 12,1 C 79 % 1004,8 hPa 0,0 l/m 6,8 km/h (2 Bft) W 280 0 min 0 lux 0 W/m
17.04.2016 03:14 6,4 C 5,6 C 12,1 C 79 % 1004,8 hPa 0,0 l/m 9,8 km/h (2 Bft) W 280 0 min 0 lux 0 W/m
17.04.2016 03:19 6,4 C 5,7 C 12,1 C 79 % 1004,8 hPa 0,0 l/m 10,6 km/h (2 Bft) W22.5 280 0 min 0 lux 0 W/m
17.04.2016 03:24 6,4 C 5,7 C 12,0 C 79 % 1004,8 hPa 0,0 l/m 11,1 km/h (2 Bft) W-NW22.5 285 0 min 0 lux 0 W/m
17.04.2016 03:30 6,4 C 5,7 C 12,0 C 80 % 1004,8 hPa 0,0 l/m 13,0 km/h (3 Bft) W22.5 280 0 min 0 lux 0 W/m
17.04.2016 03:34 6,4 C 5,7 C 12,0 C 79 % 1005,8 hPa 0,0 l/m 12,3 km/h (2 Bft) W-NW22.5 295 0 min 0 lux 0 W/m
17.04.2016 03:39 6,4 C 5,7 C 12,0 C 79 % 1005,8 hPa 0,0 l/m 11,0 km/h (2 Bft) W-NW22.5 285 0 min 0 lux 0 W/m
17.04.2016 03:44 6,4 C 5,7 C 11,9 C 80 % 1005,8 hPa 0,0 l/m 12,8 km/h (3 Bft) W22.5 265 0 min 0 lux 0 W/m
17.04.2016 03:49 6,4 C 5,6 C 12,0 C 80 % 1005,8 hPa 0,0 l/m 11,9 km/h (2 Bft) W22.5 275 0 min 0 lux 0 W/m
17.04.2016 03:55 6,3 C 5,6 C 12,0 C 80 % 1005,8 hPa 0,0 l/m 9,5 km/h (2 Bft) NW22.5 305 0 min 0 lux 0 W/m
17.04.2016 04:00 6,3 C 5,6 C 11,9 C 80 % 1005,8 hPa 0,0 l/m 9,1 km/h (2 Bft) W 265 0 min 0 lux 0 W/m
17.04.2016 04:04 6,2 C 5,6 C 11,9 C 80 % 1005,8 hPa 0,0 l/m 12,6 km/h (3 Bft) W-NW22.5 295 0 min 0 lux 0 W/m
17.04.2016 04:09 6,2 C 5,6 C 11,9 C 80 % 1005,8 hPa 0,0 l/m 15,8 km/h (3 Bft) W-NW22.5 290 0 min 0 lux 0 W/m
17.04.2016 04:15 6,2 C 5,6 C 11,9 C 80 % 1005,8 hPa 0,0 l/m 12,5 km/h (2 Bft) NW22.5 305 0 min 0 lux 0 W/m
17.04.2016 04:20 6,3 C 5,6 C 11,9 C 80 % 1005,8 hPa 0,0 l/m 10,0 km/h (2 Bft) W-NW45 290 0 min 0 lux 0 W/m
17.04.2016 04:24 6,2 C 5,6 C 11,9 C 80 % 1005,8 hPa 0,0 l/m 11,3 km/h (2 Bft) W-NW22.5 285 0 min 0 lux 0 W/m
17.04.2016 04:29 6,3 C 5,5 C 11,9 C 80 % 1005,8 hPa 0,0 l/m 12,1 km/h (2 Bft) W22.5 280 0 min 0 lux 0 W/m
17.04.2016 04:34 6,2 C 5,5 C 11,9 C 81 % 1005,8 hPa 0,0 l/m 10,7 km/h (2 Bft) W-NW22.5 290 0 min 0 lux 0 W/m
17.04.2016 04:40 6,2 C 5,5 C 11,9 C 81 % 1005,8 hPa 0,0 l/m 13,1 km/h (3 Bft) W-NW45 300 0 min 0 lux 0 W/m
17.04.2016 04:45 6,2 C 5,6 C 11,8 C 81 % 1005,8 hPa 0,0 l/m 17,2 km/h (3 Bft) W-NW22.5 300 0 min 0 lux 0 W/m
17.04.2016 04:49 6,1 C 5,5 C 11,8 C 81 % 1004,8 hPa 0,0 l/m 14,1 km/h (3 Bft) W-NW22.5 290 0 min 0 lux 0 W/m
17.04.2016 04:54 6,1 C 5,5 C 11,7 C 81 % 1004,8 hPa 0,0 l/m 12,3 km/h (2 Bft) NW22.5 305 0 min 0 lux 0 W/m
17.04.2016 04:59 6,1 C 5,5 C 11,8 C 81 % 1005,8 hPa 0,0 l/m 12,1 km/h (2 Bft) NW22.5 305 0 min 0 lux 0 W/m
17.04.2016 05:05 6,1 C 5,5 C 11,8 C 81 % 1005,8 hPa 0,0 l/m 12,1 km/h (2 Bft) NW22.5 305 0 min 0 lux 0 W/m
17.04.2016 05:09 6,1 C 5,5 C 11,7 C 81 % 1005,8 hPa 0,0 l/m 16,4 km/h (3 Bft) W-NW22.5 295 0 min 0 lux 0 W/m
17.04.2016 05:14 6,1 C 5,5 C 11,8 C 81 % 1005,8 hPa 0,0 l/m 12,5 km/h (2 Bft) W-NW22.5 285 0 min 0 lux 0 W/m
17.04.2016 05:19 6,1 C 5,5 C 11,8 C 81 % 1005,8 hPa 0,0 l/m 11,8 km/h (2 Bft) W-NW22.5 295 0 min 0 lux 0 W/m
17.04.2016 05:24 6,1 C 5,5 C 11,8 C 81 % 1005,8 hPa 0,0 l/m 10,6 km/h (2 Bft) W-NW22.5 295 0 min 0 lux 0 W/m
17.04.2016 05:30 6,1 C 5,5 C 11,8 C 81 % 1005,8 hPa 0,0 l/m 13,1 km/h (3 Bft) W-NW22.5 300 0 min 0 lux 0 W/m
17.04.2016 05:34 6,1 C 5,5 C 11,8 C 81 % 1005,8 hPa 0,0 l/m 9,8 km/h (2 Bft) NW22.5 310 0 min 0 lux 0 W/m
17.04.2016 05:39 6,1 C 5,5 C 11,8 C 81 % 1005,8 hPa 0,0 l/m 11,6 km/h (2 Bft) W-NW22.5 285 0 min 0 lux 0 W/m
17.04.2016 05:44 6,0 C 5,4 C 11,8 C 82 % 1005,8 hPa 0,0 l/m 14,7 km/h (3 Bft) W-NW22.5 295 0 min 0 lux 0 W/m
17.04.2016 05:49 6,0 C 5,4 C 11,7 C 82 % 1005,8 hPa 0,0 l/m 10,0 km/h (2 Bft) W-NW22.5 285 0 min 0 lux 0 W/m
17.04.2016 05:55 6,0 C 5,4 C 11,7 C 82 % 1005,8 hPa 0,0 l/m 9,4 km/h (2 Bft) W-NW22.5 295 0 min 0 lux 0 W/m
17.04.2016 06:00 6,0 C 5,2 C 11,8 C 82 % 1005,8 hPa 0,0 l/m 10,1 km/h (2 Bft) W 280 0 min 0 lux 0 W/m
17.04.2016 06:04 5,9 C 5,2 C 11,7 C 81 % 1005,8 hPa 0,0 l/m 13,5 km/h (3 Bft) W-NW22.5 300 0 min 0 lux 0 W/m
17.04.2016 06:09 5,9 C 5,2 C 11,7 C 81 % 1005,8 hPa 0,0 l/m 12,6 km/h (3 Bft) W-NW22.5 295 0 min 0 lux 0 W/m
17.04.2016 06:15 5,8 C 5,2 C 11,7 C 81 % 1005,8 hPa 0,0 l/m 12,1 km/h (2 Bft) W22.5 275 0 min 0 lux 0 W/m
17.04.2016 06:20 5,6 C 5,0 C 11,6 C 80 % 1005,8 hPa 0,0 l/m 16,0 km/h (3 Bft) W-NW22.5 295 0 min 44 lux 0 W/m
17.04.2016 06:24 5,6 C 5,0 C 11,6 C 79 % 1005,8 hPa 0,0 l/m 15,9 km/h (3 Bft) W-NW22.5 295 0 min 79 lux 0 W/m
17.04.2016 06:29 5,6 C 5,0 C 11,6 C 79 % 1005,8 hPa 0,0 l/m 14,8 km/h (3 Bft) W-NW22.5 285 0 min 79 lux 0 W/m
17.04.2016 06:34 5,6 C 4,9 C 11,6 C 79 % 1005,8 hPa 0,0 l/m 14,1 km/h (3 Bft) W-NW45 290 0 min 262 lux 0 W/m
17.04.2016 06:40 5,5 C 4,8 C 11,5 C 80 % 1005,8 hPa 0,0 l/m 11,7 km/h (2 Bft) W-NW22.5 295 0 min 262 lux 2 W/m
17.04.2016 06:45 5,5 C 4,8 C 11,6 C 80 % 1005,8 hPa 0,0 l/m 14,2 km/h (3 Bft) W-NW22.5 295 0 min 503 lux 3 W/m
17.04.2016 06:49 5,5 C 4,8 C 11,6 C 81 % 1005,8 hPa 0,0 l/m 14,5 km/h (3 Bft) W-NW22.5 300 0 min 503 lux 3 W/m
17.04.2016 06:54 5,5 C 4,6 C 11,5 C 81 % 1006,8 hPa 0,0 l/m 15,3 km/h (3 Bft) W-NW45 295 0 min 1,01 klux 7 W/m
17.04.2016 06:59 5,5 C 4,7 C 11,5 C 81 % 1006,8 hPa 0,0 l/m 15,3 km/h (3 Bft) W-NW22.5 290 0 min 1,01 klux 7 W/m
17.04.2016 07:05 5,5 C 4,9 C 11,6 C 82 % 1006,8 hPa 0,0 l/m 13,5 km/h (3 Bft) W-NW22.5 290 0 min 1,57 klux 11 W/m
17.04.2016 07:09 5,4 C 5,1 C 11,6 C 82 % 1006,8 hPa 0,0 l/m 13,8 km/h (3 Bft) W-NW22.5 290 0 min 1,76 klux 12 W/m
17.04.2016 07:14 5,5 C 5,3 C 11,5 C 82 % 1006,8 hPa 0,0 l/m 14,3 km/h (3 Bft) W-NW22.5 285 0 min 1,76 klux 12 W/m
17.04.2016 07:19 5,5 C 5,5 C 11,6 C 82 % 1006,8 hPa 0,0 l/m 14,3 km/h (3 Bft) W-NW22.5 285 0 min 2,30 klux 16 W/m
17.04.2016 07:24 5,5 C 5,6 C 11,5 C 83 % 1006,8 hPa 0,0 l/m 15,6 km/h (3 Bft) W-NW22.5 295 0 min 2,30 klux 16 W/m
17.04.2016 07:30 5,5 C 5,6 C 11,5 C 83 % 1006,8 hPa 0,0 l/m 14,1 km/h (3 Bft) W-NW22.5 290 0 min 2,30 klux 16 W/m
17.04.2016 07:34 5,6 C 5,5 C 11,5 C 83 % 1006,8 hPa 0,0 l/m 14,5 km/h (3 Bft) W-NW22.5 285 0 min 1,81 klux 12 W/m
17.04.2016 07:39 5,6 C 5,5 C 11,5 C 83 % 1006,8 hPa 0,0 l/m 14,0 km/h (3 Bft) W-NW22.5 290 0 min 2,88 klux 20 W/m
17.04.2016 07:44 5,5 C 5,6 C 11,5 C 84 % 1006,8 hPa 0,0 l/m 10,5 km/h (2 Bft) W22.5 270 0 min 3,42 klux 23 W/m
17.04.2016 07:49 5,6 C 5,7 C 11,5 C 84 % 1006,8 hPa 0,0 l/m 15,1 km/h (3 Bft) W-NW22.5 285 0 min 3,42 klux 23 W/m
17.04.2016 07:55 5,6 C 5,8 C 11,5 C 84 % 1007,8 hPa 0,0 l/m 13,3 km/h (3 Bft) W-NW45 300 0 min 3,42 klux 23 W/m
17.04.2016 07:59 5,6 C 6,1 C 11,6 C 83 % 1007,8 hPa 0,0 l/m 16,9 km/h (3 Bft) W22.5 275 0 min 4,18 klux 29 W/m
17.04.2016 08:04 5,6 C 6,3 C 11,5 C 83 % 1007,8 hPa 0,0 l/m 14,9 km/h (3 Bft) W22.5 280 0 min 6,65 klux 45 W/m
17.04.2016 08:09 5,8 C 6,5 C 11,5 C 83 % 1007,8 hPa 0,0 l/m 13,2 km/h (3 Bft) W22.5 280 0 min 6,65 klux 45 W/m
17.04.2016 08:15 5,8 C 6,5 C 11,4 C 83 % 1007,8 hPa 0,0 l/m 13,1 km/h (3 Bft) W-NW22.5 295 0 min 6,65 klux 45 W/m
17.04.2016 08:19 5,8 C 6,3 C 11,3 C 83 % 1007,8 hPa 0,0 l/m 15,9 km/h (3 Bft) W22.5 275 0 min 6,65 klux 45 W/m
17.04.2016 08:24 5,8 C 6,5 C 11,4 C 83 % 1007,8 hPa 0,0 l/m 15,0 km/h (3 Bft) W22.5 270 0 min 9,9 klux 68 W/m
17.04.2016 08:29 5,9 C 7,4 C 11,3 C 83 % 1007,8 hPa 0,0 l/m 14,6 km/h (3 Bft) W-NW22.5 290 0 min 14,0 klux 96 W/m
17.04.2016 08:34 6,0 C 8,1 C 11,4 C 82 % 1007,8 hPa 0,0 l/m 16,1 km/h (3 Bft) W22.5 280 0 min 12,4 klux 85 W/m
17.04.2016 08:40 6,1 C 8,5 C 11,3 C 82 % 1007,8 hPa 0,0 l/m 20,3 km/h (4 Bft) W22.5 280 0 min 12,5 klux 86 W/m
17.04.2016 08:45 6,2 C 8,8 C 11,4 C 79 % 1007,8 hPa 0,0 l/m 18,5 km/h (3 Bft) W-NW45 285 0 min 13,2 klux 90 W/m
17.04.2016 08:49 6,2 C 8,9 C 11,5 C 79 % 1007,8 hPa 0,0 l/m 15,0 km/h (3 Bft) W-NW22.5 285 0 min 13,2 klux 90 W/m
17.04.2016 08:54 6,4 C 9,0 C 11,4 C 78 % 1007,8 hPa 0,0 l/m 13,0 km/h (3 Bft) NW22.5 310 0 min 14,3 klux 98 W/m
17.04.2016 08:59 6,4 C 9,4 C 11,4 C 78 % 1007,8 hPa 0,0 l/m 19,0 km/h (3 Bft) W-NW22.5 295 0 min 24,6 klux 168 W/m
17.04.2016 09:04 6,5 C 10,3 C 11,4 C 78 % 1007,8 hPa 0,0 l/m 15,8 km/h (3 Bft) W-NW22.5 290 0 min 21,0 klux 144 W/m
17.04.2016 09:09 6,8 C 12,3 C 11,5 C 78 % 1007,8 hPa 0,0 l/m 15,2 km/h (3 Bft) W-NW22.5 295 0 min 27,2 klux 186 W/m
17.04.2016 09:14 6,8 C 11,9 C 11,4 C 76 % 1007,8 hPa 0,0 l/m 18,5 km/h (3 Bft) W-NW45 290 0 min 27,2 klux 186 W/m
17.04.2016 09:19 6,6 C 10,2 C 11,3 C 76 % 1007,8 hPa 0,0 l/m 17,4 km/h (3 Bft) W-NW45 300 0 min 14,8 klux 101 W/m
17.04.2016 09:25 6,6 C 8,8 C 11,4 C 75 % 1007,8 hPa 0,0 l/m 14,3 km/h (3 Bft) W-NW45 295 0 min 10,0 klux 68 W/m
17.04.2016 09:30 6,6 C 9,1 C 11,4 C 76 % 1008,8 hPa 0,0 l/m 19,1 km/h (3 Bft) W-NW22.5 290 0 min 13,1 klux 90 W/m
17.04.2016 09:34 7,1 C 11,0 C 11,4 C 74 % 1008,8 hPa 0,0 l/m 19,1 km/h (3 Bft) W-NW22.5 290 0 min 13,1 klux 90 W/m
17.04.2016 09:39 7,2 C 14,1 C 11,4 C 72 % 1008,8 hPa 0,0 l/m 16,4 km/h (3 Bft) W-NW45 290 0 min 13,1 klux 90 W/m
17.04.2016 09:44 7,5 C 16,6 C 11,4 C 73 % 1008,8 hPa 0,0 l/m 17,1 km/h (3 Bft) W45 280 0 min 13,1 klux 90 W/m
17.04.2016 09:49 7,8 C 17,8 C 11,4 C 69 % 1008,8 hPa 0,0 l/m 15,8 km/h (3 Bft) N45 350 0 min 13,1 klux 90 W/m
17.04.2016 09:55 7,8 C 16,1 C 11,4 C 70 % 1008,8 hPa 0,0 l/m 18,4 km/h (3 Bft) NW45 320 0 min 18,1 klux 124 W/m
17.04.2016 09:59 7,5 C 15,0 C 11,4 C 68 % 1008,8 hPa 0,0 l/m 13,1 km/h (3 Bft) NW22.5 320 0 min 21,4 klux 146 W/m
17.04.2016 10:04 7,8 C 17,5 C 11,4 C 68 % 1008,8 hPa 0,0 l/m 20,3 km/h (4 Bft) W-NW45 285 5 min 69,7 klux 477 W/m
17.04.2016 10:10 8,0 C 18,6 C 11,4 C 68 % 1008,8 hPa 0,0 l/m 16,3 km/h (3 Bft) W-NW22.5 300 6 min 69,7 klux 477 W/m
17.04.2016 10:15 8,0 C 20,0 C 11,4 C 68 % 1008,8 hPa 0,0 l/m 22,7 km/h (4 Bft) W-NW22.5 295 5 min 77,0 klux 527 W/m
17.04.2016 10:19 7,8 C 16,7 C 11,4 C 66 % 1008,8 hPa 0,0 l/m 19,8 km/h (3 Bft) NW22.5 310 0 min 19,4 klux 133 W/m
17.04.2016 10:24 8,3 C 18,8 C 11,3 C 68 % 1008,8 hPa 0,0 l/m 18,5 km/h (3 Bft) W45 275 5 min 79,0 klux 540 W/m
17.04.2016 10:29 8,6 C 20,3 C 11,4 C 67 % 1008,8 hPa 0,0 l/m 19,0 km/h (3 Bft) W45 260 5 min 76,2 klux 521 W/m
17.04.2016 10:35 8,7 C 23,2 C 11,4 C 66 % 1008,8 hPa 0,0 l/m 16,0 km/h (3 Bft) W-NW45 295 6 min 81,4 klux 557 W/m
17.04.2016 10:40 8,4 C 21,4 C 11,4 C 65 % 1008,8 hPa 0,0 l/m 21,7 km/h (4 Bft) W-NW45 300 0 min 20,4 klux 140 W/m
17.04.2016 10:44 8,2 C 16,2 C 11,4 C 64 % 1009,8 hPa 0,0 l/m 21,4 km/h (4 Bft) W-NW45 300 0 min 22,6 klux 155 W/m
17.04.2016 10:49 8,1 C 15,7 C 11,4 C 63 % 1009,8 hPa 0,0 l/m 22,1 km/h (4 Bft) W45 280 0 min 22,6 klux 155 W/m
17.04.2016 10:54 8,4 C 16,5 C 11,3 C 65 % 1009,8 hPa 0,0 l/m 23,8 km/h (4 Bft) W22.5 275 0 min 22,6 klux 155 W/m
17.04.2016 10:59 8,8 C 21,7 C 11,3 C 64 % 1009,8 hPa 0,0 l/m 23,2 km/h (4 Bft) W-SW45 250 0 min 22,6 klux 155 W/m
17.04.2016 11:04 8,9 C 27,1 C 11,4 C 61 % 1009,8 hPa 0,0 l/m 19,0 km/h (3 Bft) W45 280 5 min 87,3 klux 597 W/m
17.04.2016 11:09 8,8 C 24,6 C 11,4 C 61 % 1009,8 hPa 0,0 l/m 19,0 km/h (3 Bft) NW22.5 305 0 min 12,8 klux 88 W/m
17.04.2016 11:14 8,3 C 24,6 C 11,4 C 61 % 1009,8 hPa 0,0 l/m 17,3 km/h (3 Bft) NW45 315 0 min 12,8 klux 88 W/m
17.04.2016 11:19 8,7 C 18,0 C 11,4 C 64 % 1009,8 hPa 0,0 l/m 18,9 km/h (3 Bft) N-NW45 330 0 min 12,8 klux 88 W/m
17.04.2016 11:25 8,3 C 14,3 C 11,4 C 62 % 1009,8 hPa 0,0 l/m 20,8 km/h (4 Bft) W-NW45 295 0 min 13,9 klux 95 W/m
17.04.2016 11:29 8,0 C 12,4 C 11,4 C 61 % 1009,8 hPa 0,0 l/m 19,2 km/h (3 Bft) W-NW22.5 290 0 min 13,9 klux 95 W/m
17.04.2016 11:34 8,4 C 16,8 C 11,4 C 61 % 1009,8 hPa 0,0 l/m 16,1 km/h (3 Bft) N-NW45 335 0 min 13,9 klux 95 W/m
17.04.2016 11:39 8,7 C 17,5 C 11,4 C 56 % 1009,8 hPa 0,0 l/m 21,6 km/h (4 Bft) W-NW22.5 300 0 min 13,9 klux 95 W/m
17.04.2016 11:44 8,7 C 18,0 C 11,4 C 57 % 1009,8 hPa 0,0 l/m 16,1 km/h (3 Bft) W-NW22.5 300 0 min 26,9 klux 184 W/m
17.04.2016 11:50 9,0 C 22,7 C 11,4 C 54 % 1009,8 hPa 0,0 l/m 16,9 km/h (3 Bft) W-NW22.5 300 6 min 92,6 klux 633 W/m
17.04.2016 11:54 9,6 C 24,0 C 11,3 C 60 % 1009,8 hPa 0,0 l/m 28,8 km/h (5 Bft) W45 275 4 min 66,8 klux 457 W/m
17.04.2016 11:59 9,1 C 21,1 C 11,4 C 60 % 1009,8 hPa 0,0 l/m 17,1 km/h (3 Bft) W-NW45 290 0 min 17,9 klux 122 W/m
17.04.2016 12:05 8,7 C 15,7 C 11,4 C 61 % 1010,8 hPa 0,0 l/m 17,5 km/h (3 Bft) NW22.5 305 0 min 17,9 klux 122 W/m
17.04.2016 12:09 8,6 C 14,2 C 11,4 C 59 % 1010,8 hPa 0,0 l/m 19,0 km/h (3 Bft) NW22.5 320 0 min 17,9 klux 122 W/m
17.04.2016 12:14 8,4 C 12,3 C 11,4 C 58 % 1010,8 hPa 0,0 l/m 13,5 km/h (3 Bft) W-NW22.5 295 0 min 17,9 klux 122 W/m
17.04.2016 12:19 8,6 C 12,6 C 11,4 C 56 % 1010,8 hPa 0,0 l/m 18,5 km/h (3 Bft) W-NW45 290 0 min 17,9 klux 122 W/m
17.04.2016 12:24 9,2 C 12,6 C 11,4 C 57 % 1010,8 hPa 0,0 l/m 14,6 km/h (3 Bft) W45 280 0 min 17,9 klux 122 W/m
17.04.2016 12:30 9,7 C 25,5 C 11,4 C 57 % 1010,8 hPa 0,0 l/m 18,6 km/h (3 Bft) W-SW45 250 0 min 17,9 klux 122 W/m
17.04.2016 12:34 9,3 C 21,2 C 11,3 C 61 % 1010,8 hPa 0,0 l/m 23,2 km/h (4 Bft) W-NW22.5 295 0 min 17,9 klux 122 W/m
17.04.2016 12:39 9,2 C 17,5 C 11,4 C 62 % 1010,8 hPa 0,0 l/m 17,6 km/h (3 Bft) W22.5 275 0 min 17,9 klux 122 W/m
17.04.2016 12:44 9,3 C 17,8 C 11,4 C 58 % 1010,8 hPa 0,0 l/m 19,1 km/h (3 Bft) W22.5 265 0 min 17,9 klux 122 W/m
17.04.2016 12:49 9,2 C 17,2 C 11,4 C 57 % 1010,8 hPa 0,0 l/m 18,6 km/h (3 Bft) W45 265 0 min 47,6 klux 326 W/m
17.04.2016 12:55 9,3 C 18,4 C 11,4 C 58 % 1010,8 hPa 0,0 l/m 17,3 km/h (3 Bft) W-NW45 300 0 min 47,6 klux 326 W/m
17.04.2016 13:00 10,4 C 18,4 C 11,4 C 60 % 1010,8 hPa 0,0 l/m 23,0 km/h (4 Bft) W45 275 5 min 107 klux 732 W/m
17.04.2016 13:04 9,9 C 22,7 C 11,4 C 57 % 1010,8 hPa 0,0 l/m 23,3 km/h (4 Bft) W-NW22.5 285 4 min 107 klux 732 W/m
17.04.2016 13:09 9,7 C 21,4 C 11,5 C 56 % 1010,8 hPa 0,0 l/m 20,1 km/h (4 Bft) NW22.5 320 0 min 46,4 klux 317 W/m
17.04.2016 13:15 9,6 C 21,2 C 11,5 C 55 % 1010,8 hPa 0,0 l/m 19,0 km/h (3 Bft) W-NW22.5 295 0 min 46,4 klux 317 W/m
17.04.2016 13:20 9,8 C 22,7 C 11,5 C 57 % 1010,8 hPa 0,0 l/m 17,3 km/h (3 Bft) W-NW45 295 0 min 46,4 klux 317 W/m
17.04.2016 13:24 10,4 C 25,6 C 11,5 C 56 % 1010,8 hPa 0,0 l/m 21,8 km/h (4 Bft) W45 270 0 min 46,4 klux 317 W/m
17.04.2016 13:29 10,4 C 25,3 C 11,6 C 58 % 1010,8 hPa 0,0 l/m 19,2 km/h (3 Bft) NW45 320 0 min 46,4 klux 317 W/m
17.04.2016 13:34 9,8 C 19,4 C 11,6 C 55 % 1010,8 hPa 0,0 l/m 12,1 km/h (2 Bft) NW22.5 310 0 min 46,4 klux 317 W/m
17.04.2016 13:39 10,2 C 19,0 C 11,6 C 59 % 1010,8 hPa 0,0 l/m 15,8 km/h (3 Bft) NW22.5 315 5 min 92,1 klux 630 W/m
17.04.2016 13:45 10,5 C 19,0 C 11,6 C 55 % 1010,8 hPa 0,0 l/m 19,5 km/h (3 Bft) N-NW22.5 335 6 min 94,6 klux 647 W/m
17.04.2016 13:49 10,7 C 29,6 C 11,7 C 55 % 1010,8 hPa 0,0 l/m 20,8 km/h (4 Bft) W-NW45 290 0 min 55,3 klux 378 W/m
17.04.2016 13:54 10,3 C 29,6 C 11,7 C 52 % 1010,8 hPa 0,0 l/m 14,3 km/h (3 Bft) NW22.5 315 0 min 55,3 klux 378 W/m
17.04.2016 13:59 10,1 C 19,2 C 11,7 C 52 % 1010,8 hPa 0,0 l/m 13,5 km/h (3 Bft) NW22.5 320 0 min 55,3 klux 378 W/m
17.04.2016 14:05 10,0 C 18,8 C 11,7 C 57 % 1011,8 hPa 0,0 l/m 16,7 km/h (3 Bft) NW22.5 320 0 min 55,3 klux 378 W/m
17.04.2016 14:09 10,1 C 19,6 C 11,7 C 55 % 1011,8 hPa 0,0 l/m 10,7 km/h (2 Bft) NW22.5 315 0 min 26,2 klux 179 W/m
17.04.2016 14:14 10,4 C 19,1 C 11,7 C 56 % 1011,8 hPa 0,0 l/m 9,3 km/h (2 Bft) N-NW22.5 330 0 min 37,2 klux 254 W/m
17.04.2016 14:19 10,4 C 19,5 C 11,7 C 57 % 1011,8 hPa 0,0 l/m 23,9 km/h (4 Bft) NW45 310 0 min 38,1 klux 261 W/m
17.04.2016 14:24 10,1 C 17,6 C 11,8 C 55 % 1011,8 hPa 0,0 l/m 12,8 km/h (3 Bft) W-NW22.5 300 0 min 38,1 klux 261 W/m
17.04.2016 14:30 10,1 C 17,6 C 11,7 C 58 % 1011,8 hPa 0,0 l/m 10,5 km/h (2 Bft) W22.5 270 0 min 38,1 klux 261 W/m
17.04.2016 14:34 10,0 C 16,1 C 11,7 C 57 % 1011,8 hPa 0,0 l/m 24,0 km/h (4 Bft) W45 260 0 min 38,1 klux 261 W/m
17.04.2016 14:39 10,0 C 15,6 C 11,7 C 56 % 1011,8 hPa 0,0 l/m 19,7 km/h (3 Bft) W-NW22.5 290 0 min 28,7 klux 196 W/m
17.04.2016 14:44 10,1 C 16,3 C 11,7 C 58 % 1011,8 hPa 0,0 l/m 15,9 km/h (3 Bft) W45 280 0 min 29,2 klux 200 W/m
17.04.2016 14:49 10,1 C 16,4 C 11,7 C 58 % 1011,8 hPa 0,0 l/m 19,9 km/h (4 Bft) W22.5 260 0 min 29,2 klux 200 W/m
17.04.2016 14:55 10,4 C 22,1 C 11,8 C 57 % 1011,8 hPa 0,0 l/m 19,9 km/h (4 Bft) W22.5 260 6 min 86,5 klux 592 W/m
17.04.2016 14:59 10,8 C 27,1 C 12,0 C 56 % 1011,8 hPa 0,0 l/m 14,3 km/h (3 Bft) W22.5 260 4 min 86,5 klux 592 W/m
17.04.2016 15:04 11,1 C 28,1 C 12,0 C 53 % 1011,8 hPa 0,0 l/m 24,1 km/h (4 Bft) W45 280 5 min 89,6 klux 613 W/m
17.04.2016 15:09 10,8 C 22,7 C 12,0 C 55 % 1011,8 hPa 0,0 l/m 22,3 km/h (4 Bft) W-NW22.5 285 5 min 69,3 klux 474 W/m
17.04.2016 15:15 11,1 C 24,0 C 12,1 C 55 % 1011,8 hPa 0,0 l/m 18,4 km/h (3 Bft) W22.5 280 6 min 100 klux 684 W/m
17.04.2016 15:19 10,8 C 22,2 C 12,1 C 55 % 1011,8 hPa 0,0 l/m 22,5 km/h (4 Bft) W-NW22.5 295 0 min 29,8 klux 204 W/m
17.04.2016 15:24 10,6 C 17,8 C 12,1 C 55 % 1011,8 hPa 0,0 l/m 24,9 km/h (4 Bft) NW22.5 305 0 min 23,4 klux 160 W/m
17.04.2016 15:29 10,3 C 15,4 C 12,0 C 56 % 1011,8 hPa 0,0 l/m 20,1 km/h (4 Bft) NW22.5 310 0 min 23,4 klux 160 W/m
17.04.2016 15:34 10,2 C 14,5 C 11,9 C 59 % 1011,8 hPa 0,0 l/m 17,3 km/h (3 Bft) W-NW45 295 0 min 23,4 klux 160 W/m
17.04.2016 15:40 10,2 C 14,3 C 11,9 C 61 % 1011,8 hPa 0,0 l/m 18,0 km/h (3 Bft) N67.5 350 0 min 20,5 klux 140 W/m
17.04.2016 15:45 10,0 C 13,8 C 11,9 C 60 % 1011,8 hPa 0,0 l/m 24,3 km/h (4 Bft) N-NW45 345 0 min 21,3 klux 146 W/m
17.04.2016 15:49 10,0 C 15,4 C 11,8 C 60 % 1011,8 hPa 0,0 l/m 22,6 km/h (4 Bft) N22.5 350 0 min 35,7 klux 244 W/m
17.04.2016 15:54 10,1 C 15,9 C 11,8 C 60 % 1011,8 hPa 0,0 l/m 26,0 km/h (4 Bft) N45 10 0 min 34,5 klux 236 W/m
17.04.2016 15:59 9,8 C 15,7 C 11,9 C 59 % 1011,8 hPa 0,0 l/m 29,0 km/h (5 Bft) NW67.5 320 0 min 30,8 klux 211 W/m
17.04.2016 16:04 9,6 C 15,3 C 11,9 C 60 % 1011,8 hPa 0,0 l/m 20,3 km/h (4 Bft) NW45 320 5 min 52,8 klux 361 W/m
17.04.2016 16:09 9,6 C 14,8 C 11,8 C 62 % 1011,8 hPa 0,0 l/m 13,8 km/h (3 Bft) N-NO45 25 5 min 67,2 klux 460 W/m
17.04.2016 16:14 9,7 C 17,4 C 11,9 C 64 % 1011,8 hPa 0,0 l/m 13,8 km/h (3 Bft) N-NO45 25 5 min 67,2 klux 460 W/m
17.04.2016 16:19 9,8 C 16,3 C 11,9 C 61 % 1011,8 hPa 0,0 l/m 15,2 km/h (3 Bft) N45 5 5 min 67,2 klux 460 W/m
17.04.2016 16:25 9,8 C 16,3 C 11,9 C 63 % 1011,8 hPa 0,0 l/m 16,5 km/h (3 Bft) N22.5 360 0 min 30,9 klux 211 W/m
17.04.2016 16:29 10,1 C 19,3 C 12,0 C 61 % 1012,8 hPa 0,0 l/m 14,6 km/h (3 Bft) N-NO22.5 15 4 min 73,8 klux 505 W/m
17.04.2016 16:34 10,4 C 20,4 C 12,0 C 58 % 1012,8 hPa 0,0 l/m 14,5 km/h (3 Bft) N-NO45 15 5 min 67,3 klux 460 W/m
17.04.2016 16:39 10,7 C 24,2 C 12,2 C 59 % 1012,8 hPa 0,0 l/m 13,3 km/h (3 Bft) N45 350 5 min 66,0 klux 451 W/m
17.04.2016 16:44 10,8 C 25,1 C 12,4 C 58 % 1012,8 hPa 0,0 l/m 10,9 km/h (2 Bft) NW22.5 325 5 min 64,4 klux 440 W/m
17.04.2016 16:50 11,2 C 25,5 C 12,4 C 57 % 1012,8 hPa 0,0 l/m 15,0 km/h (3 Bft) N-NW22.5 345 6 min 66,5 klux 455 W/m
17.04.2016 16:54 11,0 C 22,9 C 12,4 C 58 % 1012,8 hPa 0,0 l/m 12,6 km/h (3 Bft) NW67.5 305 0 min 16,1 klux 110 W/m
17.04.2016 16:59 10,8 C 20,5 C 12,2 C 58 % 1012,8 hPa 0,0 l/m 13,3 km/h (3 Bft) N22.5 355 0 min 13,5 klux 92 W/m
17.04.2016 17:04 10,8 C 16,7 C 12,3 C 58 % 1012,8 hPa 0,0 l/m 7,6 km/h (2 Bft) N45 5 0 min 13,5 klux 92 W/m
17.04.2016 17:10 10,5 C 14,0 C 12,3 C 58 % 1012,8 hPa 0,0 l/m 20,1 km/h (4 Bft) NW67.5 325 0 min 15,1 klux 103 W/m
17.04.2016 17:14 9,4 C 12,2 C 12,3 C 63 % 1012,8 hPa 0,0 l/m 24,3 km/h (4 Bft) NW22.5 310 0 min 16,8 klux 115 W/m
17.04.2016 17:19 9,3 C 13,0 C 12,3 C 64 % 1012,8 hPa 0,0 l/m 21,0 km/h (4 Bft) NW22.5 305 5 min 38,7 klux 265 W/m
17.04.2016 17:24 9,3 C 13,8 C 12,3 C 62 % 1012,8 hPa 0,0 l/m 20,4 km/h (4 Bft) NW45 305 0 min 36,3 klux 248 W/m
17.04.2016 17:29 9,4 C 14,2 C 12,3 C 61 % 1012,8 hPa 0,0 l/m 20,2 km/h (4 Bft) NW22.5 310 0 min 33,1 klux 226 W/m
17.04.2016 17:35 9,5 C 15,3 C 12,4 C 61 % 1012,8 hPa 0,0 l/m 18,7 km/h (3 Bft) W-NW22.5 295 0 min 33,1 klux 226 W/m
17.04.2016 17:39 9,3 C 13,3 C 12,3 C 61 % 1012,8 hPa 0,0 l/m 16,9 km/h (3 Bft) W-NW22.5 300 0 min 15,4 klux 105 W/m
17.04.2016 17:44 9,4 C 13,9 C 12,3 C 64 % 1012,8 hPa 0,0 l/m 18,9 km/h (3 Bft) NW45 310 5 min 55,8 klux 382 W/m
17.04.2016 17:49 9,7 C 15,5 C 12,4 C 60 % 1012,8 hPa 0,0 l/m 17,1 km/h (3 Bft) NW45 310 5 min 52,8 klux 361 W/m
17.04.2016 17:54 10,4 C 17,6 C 12,5 C 59 % 1012,8 hPa 0,0 l/m 20,1 km/h (4 Bft) NW22.5 305 5 min 52,8 klux 361 W/m
17.04.2016 18:00 10,5 C 17,7 C 12,4 C 57 % 1012,8 hPa 0,0 l/m 22,1 km/h (4 Bft) W-NW22.5 295 6 min 46,9 klux 321 W/m
17.04.2016 18:04 10,7 C 17,2 C 12,4 C 56 % 1012,8 hPa 0,0 l/m 13,6 km/h (3 Bft) NW45 305 4 min 44,6 klux 305 W/m
17.04.2016 18:09 10,7 C 16,9 C 12,3 C 53 % 1012,8 hPa 0,0 l/m 20,3 km/h (4 Bft) NW45 325 5 min 43,3 klux 296 W/m
17.04.2016 18:15 10,8 C 16,9 C 12,4 C 54 % 1012,8 hPa 0,0 l/m 17,7 km/h (3 Bft) NW22.5 320 6 min 41,8 klux 286 W/m
17.04.2016 18:20 10,8 C 16,6 C 12,3 C 54 % 1012,8 hPa 0,0 l/m 19,7 km/h (3 Bft) N-NW45 330 5 min 41,8 klux 286 W/m
17.04.2016 18:24 10,8 C 16,3 C 12,3 C 54 % 1012,8 hPa 0,0 l/m 10,3 km/h (2 Bft) NW22.5 305 4 min 39,6 klux 271 W/m
17.04.2016 18:29 11,3 C 16,5 C 12,2 C 52 % 1013,8 hPa 0,0 l/m 11,5 km/h (2 Bft) N45 350 5 min 38,1 klux 261 W/m
17.04.2016 18:34 11,4 C 16,5 C 12,2 C 52 % 1013,8 hPa 0,0 l/m 12,0 km/h (2 Bft) N-NW22.5 345 5 min 36,0 klux 246 W/m
17.04.2016 18:40 11,1 C 16,0 C 12,2 C 55 % 1013,8 hPa 0,0 l/m 12,3 km/h (2 Bft) W-NW45 295 6 min 35,2 klux 241 W/m
17.04.2016 18:45 11,0 C 15,5 C 12,2 C 56 % 1013,8 hPa 0,0 l/m 16,5 km/h (3 Bft) NW45 305 5 min 34,1 klux 233 W/m
17.04.2016 18:49 11,3 C 15,7 C 12,2 C 55 % 1013,8 hPa 0,0 l/m 9,9 km/h (2 Bft) N22.5 350 4 min 34,1 klux 233 W/m
17.04.2016 18:54 11,3 C 15,9 C 12,2 C 56 % 1013,8 hPa 0,0 l/m 10,4 km/h (2 Bft) NW67.5 315 5 min 34,5 klux 236 W/m
17.04.2016 18:59 11,3 C 15,6 C 12,2 C 56 % 1013,8 hPa 0,0 l/m 14,6 km/h (3 Bft) NW45 310 0 min 9,00 klux 62 W/m
17.04.2016 19:04 10,6 C 12,4 C 12,1 C 57 % 1013,8 hPa 0,0 l/m 12,8 km/h (3 Bft) N-NW45 345 0 min 6,52 klux 45 W/m
17.04.2016 19:09 10,1 C 10,4 C 12,1 C 57 % 1013,8 hPa 0,0 l/m 16,0 km/h (3 Bft) N22.5 360 0 min 5,69 klux 39 W/m
17.04.2016 19:14 10,0 C 9,9 C 12,0 C 58 % 1013,8 hPa 0,0 l/m 16,5 km/h (3 Bft) N45 350 5 min 23,5 klux 161 W/m
17.04.2016 19:19 10,2 C 10,4 C 12,0 C 57 % 1013,8 hPa 0,0 l/m 13,1 km/h (3 Bft) N-NW45 330 0 min 5,18 klux 35 W/m
17.04.2016 19:25 10,0 C 9,9 C 12,0 C 57 % 1013,8 hPa 0,0 l/m 13,3 km/h (3 Bft) N-NW22.5 340 0 min 5,09 klux 35 W/m
17.04.2016 19:29 9,9 C 9,9 C 12,0 C 57 % 1013,8 hPa 0,0 l/m 11,8 km/h (2 Bft) N-NW22.5 345 0 min 5,09 klux 35 W/m
17.04.2016 19:34 9,8 C 8,3 C 12,0 C 58 % 1013,8 hPa 0,0 l/m 14,1 km/h (3 Bft) N22.5 5 0 min 4,79 klux 33 W/m
17.04.2016 19:39 9,6 C 7,9 C 11,9 C 59 % 1013,8 hPa 0,0 l/m 11,1 km/h (2 Bft) N 355 0 min 4,49 klux 31 W/m
17.04.2016 19:44 9,6 C 7,8 C 11,9 C 58 % 1013,8 hPa 0,0 l/m 11,1 km/h (2 Bft) N 355 0 min 4,49 klux 31 W/m
17.04.2016 19:50 9,5 C 7,5 C 11,9 C 59 % 1013,8 hPa 0,0 l/m 11,5 km/h (2 Bft) N22.5 10 0 min 3,97 klux 27 W/m
17.04.2016 19:54 9,3 C 7,2 C 11,9 C 60 % 1014,8 hPa 0,0 l/m 11,7 km/h (2 Bft) N22.5 355 4 min 8,08 klux 55 W/m
17.04.2016 19:59 9,3 C 7,0 C 11,9 C 62 % 1014,8 hPa 0,0 l/m 7,5 km/h (2 Bft) NW22.5 310 5 min 8,08 klux 55 W/m
17.04.2016 20:05 9,2 C 6,7 C 11,9 C 62 % 1014,8 hPa 0,0 l/m 1,1 km/h (1 Bft) N-NW 335 6 min 4,97 klux 34 W/m
17.04.2016 20:10 9,1 C 6,3 C 11,9 C 62 % 1014,8 hPa 0,0 l/m 8,6 km/h (2 Bft) N-NW 335 5 min 5,13 klux 35 W/m
17.04.2016 20:14 8,8 C 5,9 C 11,9 C 64 % 1014,8 hPa 0,0 l/m 4,1 km/h (1 Bft) N-NW 330 4 min 5,13 klux 35 W/m
17.04.2016 20:19 8,6 C 5,8 C 11,8 C 65 % 1014,8 hPa 0,0 l/m 7,6 km/h (2 Bft) W-NW22.5 285 0 min 891 lux 6 W/m
17.04.2016 20:24 8,4 C 6,0 C 11,8 C 66 % 1014,8 hPa 0,0 l/m 8,5 km/h (2 Bft) W-NW22.5 300 0 min 891 lux 6 W/m
17.04.2016 20:29 8,3 C 6,1 C 11,8 C 66 % 1014,8 hPa 0,0 l/m 1,0 km/h (0 Bft) NW22.5 315 0 min 891 lux 0 W/m
17.04.2016 20:35 8,3 C 6,2 C 11,8 C 66 % 1014,8 hPa 0,0 l/m 7,9 km/h (2 Bft) N67.5 350 0 min 891 lux 0 W/m
17.04.2016 20:39 8,2 C 6,2 C 11,8 C 65 % 1014,8 hPa 0,0 l/m 13,0 km/h (3 Bft) N22.5 5 0 min 891 lux 0 W/m
17.04.2016 20:44 8,2 C 6,3 C 11,8 C 65 % 1014,8 hPa 0,0 l/m 13,2 km/h (3 Bft) N-NW22.5 335 0 min 154 lux 0 W/m
17.04.2016 20:49 8,2 C 6,3 C 11,8 C 65 % 1014,8 hPa 0,0 l/m 10,3 km/h (2 Bft) N45 360 0 min 154 lux 0 W/m
17.04.2016 20:54 8,1 C 6,2 C 11,8 C 66 % 1015,8 hPa 0,0 l/m 10,3 km/h (2 Bft) N22.5 350 0 min 154 lux 0 W/m
17.04.2016 21:00 8,1 C 6,1 C 11,8 C 66 % 1015,8 hPa 0,0 l/m 1,7 km/h (1 Bft) N 350 0 min 23 lux 0 W/m
17.04.2016 21:04 8,1 C 6,1 C 11,7 C 66 % 1015,8 hPa 0,0 l/m 11,8 km/h (2 Bft) N45 360 0 min 23 lux 0 W/m
17.04.2016 21:09 8,0 C 6,0 C 11,7 C 67 % 1015,8 hPa 0,0 l/m 0,9 km/h (0 Bft) N-NW 340 0 min 5 lux 0 W/m
17.04.2016 21:15 8,0 C 5,8 C 11,7 C 67 % 1015,8 hPa 0,0 l/m 4,7 km/h (1 Bft) N-NW 340 0 min 5 lux 0 W/m
17.04.2016 21:19 7,9 C 5,7 C 11,7 C 67 % 1015,8 hPa 0,0 l/m 8,1 km/h (2 Bft) N 10 0 min 0 lux 0 W/m
17.04.2016 21:24 7,9 C 5,6 C 11,7 C 67 % 1015,8 hPa 0,0 l/m 0,2 km/h (0 Bft) N 5 0 min 0 lux 0 W/m
17.04.2016 21:29 7,8 C 5,4 C 11,7 C 67 % 1015,8 hPa 0,0 l/m 5,4 km/h (2 Bft) N 5 0 min 0 lux 0 W/m
17.04.2016 21:34 7,7 C 5,0 C 11,7 C 68 % 1015,8 hPa 0,0 l/m 0,0 km/h (0 Bft) N 355 0 min 0 lux 0 W/m
17.04.2016 21:40 7,6 C 4,5 C 11,7 C 68 % 1015,8 hPa 0,0 l/m 0,0 km/h (0 Bft) N 355 0 min 0 lux 0 W/m
17.04.2016 21:45 7,4 C 4,2 C 11,7 C 68 % 1015,8 hPa 0,0 l/m 0,7 km/h (0 Bft) N 355 0 min 0 lux 0 W/m
17.04.2016 21:49 7,2 C 3,7 C 11,7 C 68 % 1015,8 hPa 0,0 l/m 0,0 km/h (0 Bft) N 355 0 min 0 lux 0 W/m
17.04.2016 21:54 7,2 C 3,1 C 11,7 C 68 % 1015,8 hPa 0,0 l/m 0,0 km/h (0 Bft) N 355 0 min 0 lux 0 W/m
17.04.2016 21:59 6,9 C 3,1 C 11,7 C 69 % 1015,8 hPa 0,0 l/m 0,0 km/h (0 Bft) N 355 0 min 0 lux 0 W/m
17.04.2016 22:04 6,7 C 2,8 C 11,6 C 70 % 1015,8 hPa 0,0 l/m 0,0 km/h (0 Bft) N 355 0 min 0 lux 0 W/m
17.04.2016 22:09 6,4 C 2,3 C 11,6 C 70 % 1016,8 hPa 0,0 l/m 0,0 km/h (0 Bft) N 355 0 min 0 lux 0 W/m
17.04.2016 22:14 6,3 C 2,3 C 11,6 C 70 % 1016,8 hPa 0,0 l/m 4,8 km/h (1 Bft) N 355 0 min 0 lux 0 W/m
17.04.2016 22:19 6,2 C 2,2 C 11,6 C 71 % 1016,8 hPa 0,0 l/m 4,2 km/h (1 Bft) N-NW 335 0 min 0 lux 0 W/m
17.04.2016 22:25 6,3 C 2,4 C 11,6 C 74 % 1016,8 hPa 0,0 l/m 5,6 km/h (2 Bft) N-NW 335 0 min 0 lux 0 W/m
17.04.2016 22:29 6,3 C 2,6 C 11,6 C 74 % 1016,8 hPa 0,0 l/m 3,7 km/h (1 Bft) N-NW 335 0 min 0 lux 0 W/m
17.04.2016 22:34 6,2 C 2,5 C 11,6 C 73 % 1016,8 hPa 0,0 l/m 0,0 km/h (0 Bft) N-NW 335 0 min 0 lux 0 W/m
17.04.2016 22:39 6,2 C 2,3 C 11,6 C 72 % 1016,8 hPa 0,0 l/m 3,9 km/h (1 Bft) N-NW 335 0 min 0 lux 0 W/m
17.04.2016 22:44 6,2 C 2,3 C 11,6 C 74 % 1016,8 hPa 0,0 l/m 0,1 km/h (0 Bft) N-NW 335 0 min 0 lux 0 W/m
17.04.2016 22:50 6,0 C 2,1 C 11,6 C 73 % 1016,9 hPa 0,0 l/m 7,1 km/h (2 Bft) N-NW 335 0 min 0 lux 0 W/m
17.04.2016 22:54 6,2 C 2,3 C 11,5 C 74 % 1016,8 hPa 0,0 l/m 6,8 km/h (2 Bft) N-NW 340 0 min 0 lux 0 W/m
17.04.2016 22:59 6,1 C 2,2 C 11,5 C 73 % 1016,8 hPa 0,0 l/m 0,0 km/h (0 Bft) N-NW 335 0 min 0 lux 0 W/m
17.04.2016 23:05 6,0 C 1,9 C 11,5 C 73 % 1016,9 hPa 0,0 l/m 0,0 km/h (0 Bft) N-NW 335 0 min 0 lux 0 W/m
17.04.2016 23:09 5,7 C 1,7 C 11,5 C 72 % 1016,9 hPa 0,0 l/m 0,1 km/h (0 Bft) N-NW 335 0 min 0 lux 0 W/m
17.04.2016 23:14 5,6 C 1,4 C 11,5 C 73 % 1016,9 hPa 0,0 l/m 0,0 km/h (0 Bft) N-NW 335 0 min 0 lux 0 W/m
17.04.2016 23:19 5,5 C 1,3 C 11,5 C 73 % 1016,9 hPa 0,0 l/m 0,4 km/h (0 Bft) N-NW 335 0 min 0 lux 0 W/m
17.04.2016 23:24 5,4 C 1,1 C 11,5 C 74 % 1016,9 hPa 0,0 l/m 0,0 km/h (0 Bft) N-NW 335 0 min 0 lux 0 W/m
17.04.2016 23:30 5,7 C 1,3 C 11,4 C 75 % 1016,9 hPa 0,0 l/m 1,3 km/h (1 Bft) N-NW 335 0 min 0 lux 0 W/m
17.04.2016 23:34 5,6 C 0,9 C 11,5 C 74 % 1016,9 hPa 0,0 l/m 0,0 km/h (0 Bft) N-NW 335 0 min 0 lux 0 W/m
17.04.2016 23:39 5,4 C 0,9 C 11,4 C 73 % 1016,9 hPa 0,0 l/m 0,0 km/h (0 Bft) N-NW 335 0 min 0 lux 0 W/m
17.04.2016 23:44 5,4 C 0,9 C 11,4 C 74 % 1016,9 hPa 0,0 l/m 0,0 km/h (0 Bft) N-NW 335 0 min 0 lux 0 W/m
17.04.2016 23:49 5,4 C 1,2 C 11,4 C 75 % 1016,9 hPa 0,0 l/m 7,4 km/h (2 Bft) NW22.5 325 0 min 0 lux 0 W/m
17.04.2016 23:55 5,4 C 1,2 C 11,3 C 76 % 1016,9 hPa 0,0 l/m 7,6 km/h (2 Bft) W-NW 285 0 min 0 lux 0 W/m
17.04.2016 23:59 5,2 C 1,2 C 11,3 C 76 % 1016,9 hPa 0,0 l/m 6,3 km/h (2 Bft) W-NW 285 0 min 0 lux 0 W/m
_ Min-Zeit 23:59 23:34 08:19 13:54 00:04 - 21:34 - - - - -
Minimum _ 5,2 C 0,9 C 11,3 C 52 % 1003,8 hPa - 0,0 km/h (0 Bft) - - - - -
_ Max-Zeit 18:34 13:49 17:54 07:44 23:59 00:04 15:59 - - 10:10 13:00 13:00
Maximum _ 11,4 C 29,6 C 12,5 C 84 % 1016,9 hPa 0,0 l/m 29,0 km/h
NW (5 Bft)
- - 6 min 107 klux 732 W/m
Durchschnitt _ 7,8 C 10,5 C 11,8 C 69 % 1010,0 hPa #0,0 l/m 13,2 km/h (3 Bft) W-NW - #4:07 h 17,8 klux 211 W/m